KAL540 RKSS-RKPC

Flight info

Callsign KAL540
Flight time 0h 37m
Altitude 36000
Route BULTI2U BULTI Y711 DOTOL DOTOL2P
Aircraft B738/M-SDE2E3FGHIRWXY/LB1

Departure

Time 2025-09-05 15:53
Airport Gimpo International Airport (RKSS)

Arrival

Time 2025-09-05 16:30
Airport Jeju International Airport (RKPC)
Time Latitude Longitude Altitude Speed Heading
2025-09-05 15:28 37.55791 126.80251 67 ft 0 kts 44°
2025-09-05 15:43 37.55763 126.80217 67 ft 3 kts 44°
2025-09-05 15:44 37.55758 126.80210 67 ft 0 kts 44°
2025-09-05 15:45 37.55759 126.80212 67 ft 0 kts 44°
2025-09-05 15:45 37.55740 126.80196 67 ft 4 kts 20°
2025-09-05 15:46 37.55703 126.80197 67 ft 0 kts 314°
2025-09-05 15:48 37.55888 126.79940 67 ft 30 kts 294°
2025-09-05 15:48 37.56067 126.79379 67 ft 39 kts 313°
2025-09-05 15:49 37.56518 126.78801 67 ft 38 kts 315°
2025-09-05 15:49 37.56888 126.78349 67 ft 37 kts 318°
2025-09-05 15:50 37.57151 126.78007 67 ft 14 kts 286°
2025-09-05 15:50 37.57143 126.77956 67 ft 0 kts 236°
2025-09-05 15:50 37.57128 126.77934 67 ft 10 kts 227°
2025-09-05 15:51 37.57023 126.77890 67 ft 0 kts 144°
2025-09-05 15:52 37.57008 126.77906 67 ft 16 kts 139°
2025-09-05 15:52 37.56233 126.78873 67 ft 142 kts 135°
2025-09-05 15:53 37.54441 126.80919 1051 ft 174 kts 140°
2025-09-05 15:53 37.52302 126.83812 1046 ft 193 kts 136°
2025-09-05 15:54 37.50521 126.86037 1241 ft 180 kts 140°
2025-09-05 15:54 37.49893 126.86699 1419 ft 176 kts 153°
2025-09-05 15:54 37.47526 126.87640 1945 ft 189 kts 167°
2025-09-05 15:55 37.44407 126.88872 2610 ft 213 kts 166°
2025-09-05 15:56 37.39851 126.89777 3715 ft 231 kts 205°
2025-09-05 15:56 37.37648 126.86871 5071 ft 217 kts 210°
2025-09-05 15:57 37.35270 126.86898 5681 ft 240 kts 146°
2025-09-05 15:57 37.33450 126.90551 6609 ft 253 kts 133°
2025-09-05 15:58 37.29846 126.91913 7840 ft 243 kts 186°
2025-09-05 15:58 37.28698 126.91890 7959 ft 252 kts 180°
2025-09-05 15:59 37.23504 126.93230 7990 ft 254 kts 167°
2025-09-05 15:59 37.21117 126.94054 8357 ft 279 kts 167°
2025-09-05 16:00 37.16545 126.95578 9814 ft 291 kts 168°
2025-09-05 16:00 37.12513 126.96926 10741 ft 313 kts 168°
2025-09-05 16:01 37.08704 126.97858 11351 ft 332 kts 182°
2025-09-05 16:01 37.00388 126.95223 13050 ft 343 kts 202°
2025-09-05 16:02 36.91204 126.91069 14654 ft 359 kts 200°
2025-09-05 16:02 36.87965 126.89702 15081 ft 365 kts 201°
2025-09-05 16:02 36.76840 126.84643 15889 ft 361 kts 202°
2025-09-05 16:03 36.69057 126.81789 15890 ft 339 kts 187°
2025-09-05 16:04 36.55844 126.83419 15900 ft 294 kts 180°
2025-09-05 16:04 36.48037 126.83421 15903 ft 273 kts 183°
2025-09-05 16:05 36.40311 126.83677 15913 ft 285 kts 180°
2025-09-05 16:05 36.31907 126.83333 17128 ft 301 kts 191°
2025-09-05 16:05 36.21185 126.81636 21493 ft 280 kts 187°
2025-09-05 16:06 36.12394 126.80803 24035 ft 292 kts 184°
2025-09-05 16:06 36.08959 126.80535 24195 ft 307 kts 185°
2025-09-05 16:07 36.04561 126.80091 24346 ft 327 kts 186°
2025-09-05 16:08 35.96606 126.79229 24592 ft 362 kts 186°
2025-09-05 16:08 35.92314 126.78766 24730 ft 378 kts 185°
2025-09-05 16:09 35.86919 126.78185 24879 ft 398 kts 185°
2025-09-05 16:09 35.84133 126.77883 24933 ft 408 kts 185°
2025-09-05 16:10 35.52772 126.74495 25914 ft 400 kts 185°
2025-09-05 16:13 35.32327 126.72289 25933 ft 314 kts 185°
2025-09-05 16:14 34.59608 126.64586 25876 ft 373 kts 186°
2025-09-05 16:17 34.33865 126.61888 25910 ft 446 kts 186°
2025-09-05 16:18 33.94016 126.54983 25052 ft 434 kts 219°
2025-09-05 16:19 33.87743 126.47787 24548 ft 397 kts 224°
2025-09-05 16:20 33.83812 126.43404 24277 ft 373 kts 221°
2025-09-05 16:20 33.79400 126.38866 23591 ft 345 kts 220°
2025-09-05 16:21 33.75745 126.35254 22380 ft 344 kts 219°
2025-09-05 16:21 33.71690 126.31845 19852 ft 382 kts 206°
2025-09-05 16:21 33.70055 126.30965 18684 ft 401 kts 201°
2025-09-05 16:22 33.64533 126.28865 15167 ft 440 kts 196°
2025-09-05 16:22 33.58855 126.26961 13817 ft 415 kts 197°
2025-09-05 16:23 33.53340 126.24985 10213 ft 449 kts 198°
2025-09-05 16:24 33.43700 126.25064 6707 ft 412 kts 146°
2025-09-05 16:24 33.42278 126.26582 6102 ft 406 kts 131°
2025-09-05 16:25 33.44021 126.33287 4815 ft 344 kts 346°
2025-09-05 16:25 33.45806 126.31578 3405 ft 348 kts 281°
2025-09-05 16:25 33.42905 126.29833 4077 ft 213 kts 113°
2025-09-05 16:26 33.43374 126.33447 3573 ft 194 kts 76°
2025-09-05 16:26 33.44130 126.35950 2486 ft 221 kts 64°
2025-09-05 16:27 33.45742 126.38731 1678 ft 209 kts 53°
2025-09-05 16:28 33.47788 126.42812 623 ft 176 kts 71°
2025-09-05 16:28 33.49043 126.45063 353 ft 153 kts 51°
2025-09-05 16:29 33.50162 126.47253 130 ft 148 kts 64°
2025-09-05 16:29 33.50683 126.48241 127 ft 131 kts 57°
2025-09-05 16:29 33.51294 126.49762 127 ft 41 kts 48°
2025-09-05 16:30 33.51393 126.49808 127 ft 0 kts 309°
2025-09-05 16:30 33.51445 126.49679 127 ft 22 kts 246°
2025-09-05 16:31 33.51249 126.49339 127 ft 25 kts 220°
2025-09-05 16:32 33.50901 126.49313 127 ft 11 kts 200°
2025-09-05 16:32 33.50793 126.49301 127 ft 0 kts 176°
2025-09-05 16:33 33.50780 126.49303 127 ft 0 kts 178°